ELECTRON KICK STAGE R/B, 63207

Orbit data source: Space-Track

ELECTRON KICK STAGE R/B, 63207 is space debris in LEO originally from a launch on Sat, 15 Mar 2025 UTC launched from the Rocket Lab Launch Complex (RLLC). Debris objects in space refer to the collection of defunct objects orbiting the Earth. Examples of debris include non-operational satellites, rocket bodies, and fragments generated from explosions, collisions, or faulty payload assembly.

Loading next visibility...
Identifier
63207, 2025-050C
Orbit
LEO
Country
Flag of USUS
Related business
Manufacturer
Rocket Lab
Mission
Spacecraft
Bus & Motor
KICK STAGE, CURIE
Mass
~42 kg wet, ~42 kg dry
Launch date (UTC)
2025-03-15 (7 months ago)
Launch vehicle
Unknown
Launch site
Rocket Lab Launch Complex (RLLC)
Object type
Payload
Rocket body
Debris
Shape & HBR
Trunc Cone, 0.8 m
Radar Cross Section
0.760 m², Large (>1 m²)

Expand to show TLE details & history
Last TLE update: 5 hours ago

TLE from 5 hours ago
0 ELECTRON KICK STAGE R/B
1 63207U 25050C   25290.91359251  .00009572  00000-0  76356-3 0  9996
2 63207  42.0195 356.6139 0005588 277.3597  82.6594 15.00347877 32551
Epoch: 2025-10-17T21:55Z
TLE epoch observation values (Epoch: 2025-10-17T21:55:34.392Z)
Latitude
-0.00002°
Longitude
1.06844°
Altitude
565 km
Speed
7.581 km/s
True Right ascension
23h 46m 27s
True Declination
0° 00' 00"
Sunlit
Object was in full shadow at epoch
Visualization orbit readout
Latitude
Unknown
Longitude
Unknown
Altitude
Unknown
Speed
Unknown
Apparent Right ascension
Unknown
Apparent Declination
Unknown
Sunlit
N/A
Visualization observer readout
Local Sidereal Time
22:10:21
Azimuth
Unknown
Elevation
Unknown
Doppler factor
Unknown
Orbital elements
Apogee altitude
571.789 km
Perigee altitude
564.026 km
Semi-major axis
6,946.044 km
Eccentricity
0.00056
Inclination
42.0195°
RAAN
356.6139°
Arg. of periapsis
277.3597°
True anomaly
82.72291°
Mean anomaly
82.6594°
Eccentric anomaly
82.69116°
Mean motion
3.74918 °/min
Orbital period
96.02 mins
BSTAR
0.00076356
Loading maneuver chart data...
Computing Atmospheric mass density...
Loading historical data...
Loading historical data...
Loading historical data...
Loading historical data...
Loading historical data...
Loading historical data...
Loading historical data...
Other satellites on launch #50 in the year 2025 (2025-03-15 UTC)

Documentation

Showing up to 5 results
|